Weather History for Toulouse, France

Change the Weather History Date:

Tuesday, July 9, 2013

  Actual Average Record
Temperature  
Mean Temperature 79 °F -  
Max Temperature 91 °F 80 °F 91 °F (2013)
Min Temperature 67 °F 60 °F 53 °F (1996)
Cooling Degree Days 14    
Growing Degree Days 29 (Base 50)    
Moisture  
Dew Point 58 °F    
Average Humidity 48    
Maximum Humidity 65    
Minimum Humidity 29    
Precipitation  
Precipitation 0.00 in 0.06 in - ()
Sea Level Pressure  
Sea Level Pressure 30.05 in    
Wind  
Wind Speed 7 mph ()    
Max Wind Speed 15 mph    
Max Gust Speed -    
Visibility 6.5 miles    
Events      
Averages and records for this station are not official NWS values.
T = Trace of Precipitation, MM = Missing Value Source: Averaged Metar Reports

Daily Weather History Graph

Daily Weather History Graph

Search for Another Location

Airport:

Trip Planner

Search our weather history database for the weather conditions in past years. The results will help you decide how hot, cold, wet, or windy it might be!

Date:

Astronomy

Jul. 09, 2013 Rise Set
Actual Time 6:22 AM CEST 9:37 PM CEST
Civil Twilight 5:46 AM CEST 10:12 PM CEST
Nautical Twilight 5:01 AM CEST 10:57 PM CEST
Astronomical Twilight 4:05 AM CEST 11:53 PM CEST
Moon 7:36 AM CEST (7/9) 10:01 PM CEST (7/9)
Length of Visible Light 16h 25m
Length of Day
15h 15m
New Moon, 1% of the Moon is Illuminated
Jul 9
New Moon
Jul 16
First Quarter
Jul 22
Full
Jul 29
Last Quarter
Aug 6
New

Hourly Weather History & Observations

Time (CEST) Temp. Heat Index Dew Point Humidity Pressure Visibility Wind Dir Wind Speed Gust Speed Precip Events Conditions
12:00 AM 77.0 °F - 57.2 °F 50% 30.12 in 6.2 mi SSE 3.5 mph - N/A   Unknown
12:30 AM 75.2 °F - 57.2 °F 53% 30.12 in 6.2 mi South 4.6 mph - N/A   Unknown
1:00 AM 75.2 °F - 57.2 °F 53% 30.12 in 6.2 mi South 6.9 mph - N/A   Unknown
1:30 AM 73.4 °F - 55.4 °F 53% 30.12 in 6.2 mi SSE 6.9 mph - N/A   Unknown
2:00 AM 73 °F - 56 °F 44% 30.10 in 31 mi SSE 6.9 mph - -   Clear
2:00 AM 73.4 °F - 55.4 °F 53% 30.09 in 6.2 mi SSE 6.9 mph - N/A   Unknown
2:30 AM 73.4 °F - 55.4 °F 53% 30.09 in 6.2 mi SE 11.5 mph - N/A   Unknown
3:00 AM 73.4 °F - 55.4 °F 53% 30.09 in 6.2 mi SE 12.7 mph - N/A   Unknown
3:30 AM 71.6 °F - 55.4 °F 57% 30.09 in 6.2 mi SE 5.8 mph - N/A   Unknown
4:00 AM 71.6 °F - 55.4 °F 57% 30.06 in 6.2 mi SE 6.9 mph - N/A   Unknown
4:30 AM 71.6 °F - 55.4 °F 57% 30.06 in 6.2 mi SE 5.8 mph - N/A   Unknown
5:00 AM 69.8 °F - 55.4 °F 60% 30.06 in 6.2 mi Variable 3.5 mph - N/A   Unknown
5:30 AM 69.8 °F - 55.4 °F 60% 30.06 in 6.2 mi Variable 3.5 mph - N/A   Unknown
6:00 AM 68.0 °F - 55.4 °F 64% 30.06 in 6.2 mi Variable 3.5 mph - N/A   Unknown
6:30 AM 68.0 °F - 55.4 °F 64% 30.09 in 6.2 mi SSE 6.9 mph - N/A   Unknown
7:00 AM 69.8 °F - 57.2 °F 64% 30.09 in 6.2 mi SE 6.9 mph - N/A   Unknown
7:30 AM 69.8 °F - 57.2 °F 64% 30.09 in 6.2 mi SE 5.8 mph - N/A   Unknown
8:00 AM 72 °F - 58 °F 51% 30.09 in 19 mi SE 8.1 mph - -   Scattered Clouds
8:00 AM 71.6 °F - 57.2 °F 60% 30.09 in 6.2 mi SE 8.1 mph - N/A   Unknown
8:30 AM 73.4 °F - 59.0 °F 61% 30.09 in 6.2 mi SE 11.5 mph - N/A   Unknown
9:00 AM 73.4 °F - 60.8 °F 65% 30.09 in 6.2 mi SE 9.2 mph - N/A   Unknown
9:30 AM 75.2 °F - 59.0 °F 57% 30.09 in 6.2 mi SE 12.7 mph - N/A   Unknown
10:00 AM 77.0 °F - 59.0 °F 54% 30.09 in 6.2 mi SE 15.0 mph - N/A   Unknown
10:30 AM 78.8 °F - 59.0 °F 51% 30.09 in 6.2 mi ESE 10.4 mph - N/A   Unknown
11:00 AM 78.8 °F - 60.8 °F 54% 30.06 in 6.2 mi SE 11.5 mph - N/A   Unknown
11:30 AM 82.4 °F 83.4 °F 62.6 °F 51% 30.06 in 6.2 mi SE 9.2 mph - N/A   Unknown
12:00 PM 82.4 °F 83.4 °F 62.6 °F 51% 30.06 in 6.2 mi SSE 9.2 mph - N/A   Unknown
12:30 PM 84.2 °F 84.4 °F 60.8 °F 45% 30.06 in 6.2 mi SE 10.4 mph - N/A   Unknown
1:00 PM 86.0 °F 86.6 °F 62.6 °F 45% 30.06 in 6.2 mi Variable 8.1 mph - N/A   Unknown
1:30 PM 86.0 °F 86.1 °F 60.8 °F 43% 30.04 in 6.2 mi SE 9.2 mph - N/A   Unknown
2:00 PM 87 °F - 62 °F 33% 30.02 in 25 mi ESE 8.1 mph - -   Scattered Clouds
2:00 PM 87.8 °F 88.5 °F 62.6 °F 43% 30.04 in 6.2 mi ESE 8.1 mph - N/A   Unknown
2:30 PM 87.8 °F 87.6 °F 60.8 °F 40% 30.04 in 6.2 mi ESE 8.1 mph - N/A   Unknown
3:00 PM 89.6 °F 88.9 °F 59.0 °F 36% 30.01 in 6.2 mi ESE 10.4 mph - N/A   Unknown
3:30 PM 89.6 °F 88.9 °F 59.0 °F 36% 30.01 in 6.2 mi ESE 8.1 mph - N/A   Unknown
4:00 PM 89.6 °F 88.9 °F 59.0 °F 36% 30.01 in 6.2 mi ESE 9.2 mph - N/A   Unknown
4:30 PM 91.4 °F 89.9 °F 57.2 °F 31% 30.01 in 6.2 mi ESE 10.4 mph - N/A   Unknown
5:00 PM 91.4 °F 89.9 °F 57.2 °F 31% 29.98 in 6.2 mi East 6.9 mph - N/A   Unknown
5:30 PM 91.4 °F 91.4 °F 60.8 °F 36% 29.98 in 6.2 mi East 4.6 mph - N/A   Unknown
6:00 PM 91.4 °F 90.7 °F 59.0 °F 34% 29.98 in 6.2 mi ESE 5.8 mph - N/A   Unknown
6:30 PM 89.6 °F 88.9 °F 59.0 °F 36% 29.98 in 6.2 mi ESE 8.1 mph - N/A   Unknown
7:00 PM 87.8 °F 87.1 °F 59.0 °F 38% 29.98 in 6.2 mi SSE 9.2 mph - N/A   Unknown
7:30 PM 87.8 °F 87.1 °F 59.0 °F 38% 29.98 in 6.2 mi SE 9.2 mph - N/A   Unknown
8:00 PM 86 °F - 58 °F 29% 29.96 in 25 mi SSE 11.5 mph - -   Clear
8:00 PM 86.0 °F 85.4 °F 59.0 °F 40% 29.98 in 6.2 mi SSE 11.5 mph - N/A   Unknown
8:30 PM 84.2 °F 83.8 °F 59.0 °F 42% 29.98 in 6.2 mi SSE 8.1 mph - N/A   Unknown
9:00 PM 84.2 °F 84.4 °F 60.8 °F 45% 29.98 in 6.2 mi SE 8.1 mph - N/A   Unknown
9:30 PM 80.6 °F 81.5 °F 60.8 °F 51% 30.01 in 6.2 mi SSE 6.9 mph - N/A   Unknown
10:00 PM 80.6 °F 81.1 °F 59.0 °F 48% 30.01 in 6.2 mi ESE 8.1 mph - N/A   Unknown
10:30 PM 78.8 °F - 57.2 °F 47% 30.01 in 6.2 mi SSE 8.1 mph - N/A   Unknown
11:00 PM 77.0 °F - 57.2 °F 50% 30.01 in 6.2 mi South 5.8 mph - N/A   Unknown
11:30 PM 77.0 °F - 57.2 °F 50% 30.01 in 6.2 mi SSE 6.9 mph - N/A   Unknown